Theta_e
344 343 340 337 338 340 344 343 345 349 344 341 339 340 340 337 336 337 336 336 338 339 339 341 341 341 341 341 341 341 341 341 341 340 340 339 337 339
342 342 344 341 342 341 341 344 344 343 344 338 338 338 337 336 334 334 334 335 336 335 336 337 337 337 337 337 338 338 339 340 340 340 338 339 339 338
343 342 343 343 342 341 339 342 343 343 343 341 338 337 335 333 331 330 330 330 332 333 334 333 333 334 334 333 334 335 335 336 337 337 337 337 336 335
341 340 341 343 344 343 343 343 343 342 341 341 338 332 329 328 327 327 326 325 325 329 331 331 331 331 331 331 331 331 331 331 331 332 332 331 330 326
334 335 334 336 336 338 339 339 338 337 337 337 335 332 327 326 325 324 323 323 321 320 324 323 325 326 327 327 327 328 328 330 329 329 326 325 320 322
330 330 331 332 333 333 334 335 335 334 334 334 332 329 327 326 324 322 319 319 318 318 317 317 318 319 320 321 321 321 321 321 321 321 321 321 321 319
326 325 326 327 329 331 332 332 332 332 331 329 326 325 324 324 324 321 317 316 316 315 315 315 317 316 315 316 316 318 318 318 317 317 316 315 315 312
330 327 326 325 324 325 327 330 333 331 329 326 325 325 324 324 322 320 318 320 318 315 314 312 313 312 310 310 311 311 311 310 308 308 306 305 304 304
328 328 327 324 325 323 322 321 323 325 326 326 324 325 324 324 323 322 322 320 316 315 315 313 312 310 309 308 308 307 307 306 306 305 305 305 304 304
323 322 322 320 320 318 314 312 313 316 319 321 321 321 322 323 323 322 320 317 317 317 317 313 312 310 310 310 309 308 306 306 306 306 307 307 306 306
320 320 319 319 321 321 319 316 314 312 310 310 310 310 312 315 315 319 322 321 320 317 317 314 312 311 311 310 310 309 308 308 308 308 308 307 306 306
317 313 314 317 320 322 321 321 319 317 316 315 313 310 308 309 310 312 312 317 320 319 318 316 312 312 311 312 311 309 309 308 308 307 307 307 306 306
318 314 313 314 315 320 320 318 315 312 312 313 312 311 309 308 308 308 311 313 313 310 310 313 316 315 316 313 311 309 306 307 305 306 306 305 305 305
316 313 312 312 312 311 311 309 309 309 310 312 308 307 307 308 307 307 307 306 306 307 310 310 312 309 312 314 313 312 311 310 309 309 308 305 303 303
313 306 305 305 305 304 305 306 307 308 309 307 307 306 306 305 307 309 309 309 308 307 302 308 309 309 309 307 309 309 309 310 311 309 308 307 306 306
307 306 306 305 305 306 307 306 304 306 306 306 305 305 305 305 305 305 306 311 310 309 306 303 305 308 307 306 306 306 305 308 306 306 306 306 306 305
306 306 306 307 309 308 307 307 307 306 305 305 304 304 304 305 304 304 304 304 306 309 309 307 304 304 303 305 304 304 304 306 306 304 303 303 304 304
307 310 310 309 309 308 308 307 306 305 305 304 304 303 303 302 302 303 303 304 304 305 305 305 306 307 306 306 302 303 304 304 306 304 303 303 303 304
307 310 309 308 308 307 306 306 306 305 302 304 303 303 302 303 302 303 303 303 304 305 305 304 304 304 306 308 302 302 301 300 302 302 304 303 303 303
306 308 308 308 307 306 306 305 305 304 304 303 303 303 303 303 303 302 302 302 301 302 304 304 304 302 301 302 303 302 300 301 301 301 302 302 303 303
309 307 307 307 307 306 305 304 304 303 303 303 304 303 303 302 302 302 302 301 300 299 302 305 303 301 299 298 301 302 301 301 301 301 301 300 301 302
308 308 308 307 307 306 306 305 304 304 304 303 302 302 303 302 302 302 301 301 301 302 303 303 302 301 302 302 302 303 303 301 302 301 301 298 300 302
307 307 306 306 306 306 306 305 304 304 303 303 303 302 303 302 302 302 302 301 301 301 302 302 301 302 301 301 302 301 303 304 303 303 303 301 300 298
Wind_Speed
9 14 18 18 18 19 9 4 3 2 1 3 2 4 5 9 11 11 11 10 11 11 9 3 5 7 10 11 12 16 20 19 20 19 18 20 21 24
9 11 10 15 14 14 11 5 5 3 1 2 4 4 6 8 9 6 5 5 8 10 13 13 12 13 12 11 11 10 9 11 14 13 15 17 19 18
4 4 7 6 7 6 7 9 6 4 2 3 2 4 6 7 6 8 10 12 12 11 10 12 12 12 11 12 11 11 11 9 8 9 10 11 11 9
14 12 12 10 10 8 6 6 7 5 2 5 3 6 9 8 10 12 14 17 18 13 11 10 9 9 9 9 8 9 8 7 6 4 5 3 5 16
16 16 16 15 13 9 10 8 7 6 5 7 6 6 6 8 12 13 14 15 15 16 15 15 12 9 9 8 5 4 8 5 7 5 13 18 21 16
18 18 16 15 14 13 14 12 11 11 9 10 12 8 7 6 6 9 12 12 14 14 16 15 18 21 22 21 20 18 16 15 14 13 12 12 12 11
20 21 19 17 15 12 11 11 9 9 10 11 10 8 6 4 4 3 11 12 13 12 15 16 14 16 17 16 15 14 13 12 11 10 10 9 9 10
12 16 19 23 23 21 17 14 11 8 10 11 10 9 7 5 5 7 9 3 3 5 10 14 13 16 16 16 15 15 15 15 16 17 18 19 19 19
15 14 15 12 14 15 15 18 20 19 13 11 14 12 9 7 7 6 4 5 7 10 10 12 12 14 11 12 12 12 13 14 14 15 14 14 14 13
15 13 12 13 13 13 15 19 18 15 12 10 11 11 12 11 8 5 7 11 10 6 6 4 6 8 6 7 7 8 8 9 9 9 8 9 9 9
13 12 8 8 10 9 10 11 12 15 16 16 15 14 12 8 7 4 5 10 7 5 5 6 5 4 2 1 3 3 4 3 3 3 4 6 7 6
9 8 9 7 6 8 8 8 9 8 5 6 8 10 11 10 9 9 12 7 8 7 6 2 7 6 2 4 4 3 2 2 2 2 3 2 2 4
10 7 7 6 5 5 5 7 6 5 3 4 2 3 7 9 12 8 13 12 14 15 6 2 8 8 6 5 4 4 7 2 5 4 4 2 2 1
11 6 6 7 7 7 8 7 3 3 6 7 9 9 8 11 8 10 12 11 11 8 2 6 5 7 6 10 8 12 9 10 7 5 5 2 1 0
6 9 9 10 10 8 7 7 8 11 6 10 9 7 4 7 3 3 2 6 7 7 7 5 7 9 12 9 8 12 5 9 10 9 7 4 3 4
7 5 5 4 5 4 4 6 7 6 10 9 7 4 2 5 6 6 4 5 8 4 6 8 2 9 10 11 9 10 7 5 11 7 3 8 11 3
4 3 4 6 6 4 3 4 5 6 6 6 7 6 4 3 2 3 5 8 4 7 8 5 8 4 2 3 5 5 3 12 9 3 3 7 2 6
6 11 5 1 4 5 2 1 4 3 4 7 6 6 6 5 7 5 5 6 5 3 4 3 4 7 6 3 1 3 5 7 10 4 1 3 4 7
7 13 3 2 3 4 5 6 8 5 2 4 4 2 4 2 3 6 4 7 5 1 3 1 6 8 5 4 5 3 2 6 6 11 11 10 6 6
6 8 3 2 3 4 4 6 6 2 2 2 3 5 4 6 8 6 8 3 10 12 7 8 4 3 6 5 2 8 3 3 4 7 11 11 5 7
10 2 3 2 2 3 1 3 6 7 7 6 4 7 7 6 13 5 7 4 5 6 12 1 6 4 6 5 8 10 11 8 5 3 4 6 10 14
7 4 2 4 5 5 5 4 5 9 9 7 6 7 8 5 9 11 9 9 8 12 13 5 3 2 4 10 16 5 16 14 12 10 7 4 6 3
5 5 6 7 5 8 9 8 7 9 13 8 8 9 10 9 9 11 10 11 12 14 11 10 6 12 9 12 11 11 6 16 18 19 18 12 5 4
Wind_Direction
227 235 223 234 254 259 264 264 211 177 336 56 67 52 27 21 17 1 360 12 26 23 17 312 291 300 294 291 284 272 260 257 267 261 262 264 270 275
217 201 217 237 251 258 253 269 243 234 152 30 54 61 24 12 11 5 20 27 52 55 55 57 56 48 36 24 16 5 345 287 273 254 262 268 268 269
77 223 250 247 226 229 237 260 228 214 205 145 107 43 25 12 41 64 70 68 67 51 48 44 37 25 12 10 10 15 15 5 346 325 304 290 288 275
54 61 60 67 84 92 106 107 105 106 123 116 107 91 78 76 84 83 78 74 67 66 58 54 46 36 37 36 30 32 14 360 356 37 34 52 116 112
67 66 59 59 61 68 76 72 69 75 85 128 122 123 116 104 94 87 77 75 74 70 70 73 67 56 47 44 51 75 132 126 115 119 125 115 100 91
60 62 65 72 74 74 81 85 90 90 88 93 94 94 98 101 100 92 80 80 77 72 76 82 90 93 91 89 84 76 67 63 60 61 60 60 62 68
65 65 63 64 64 72 80 79 86 94 101 103 95 96 89 83 86 113 103 91 78 75 77 70 74 70 59 52 47 41 39 41 39 42 43 45 46 74
74 78 64 67 68 68 72 75 82 93 98 97 98 93 79 84 92 115 122 131 104 39 65 60 59 66 65 61 53 56 59 63 68 71 78 84 87 91
69 81 79 69 72 67 69 78 83 81 86 100 89 85 84 93 114 117 118 112 121 126 87 72 57 60 58 63 63 68 73 78 82 84 86 88 89 90
75 69 80 80 74 83 74 79 81 83 89 97 105 99 93 92 87 118 134 120 117 122 128 97 85 91 66 69 75 76 80 83 85 87 85 85 85 85
75 84 83 93 68 117 90 86 79 81 77 77 80 76 68 71 51 238 170 178 163 157 147 121 163 155 157 39 87 102 111 111 106 98 101 98 70 69
77 63 76 80 73 83 96 95 86 93 94 79 94 85 70 42 35 51 34 358 146 130 156 138 169 161 187 230 202 184 140 156 141 149 123 122 61 70
113 73 63 63 71 100 102 120 125 111 126 148 188 116 110 68 30 41 50 48 55 83 54 34 219 211 217 172 193 142 139 162 175 160 138 139 248 287
96 85 76 72 71 84 100 103 97 328 295 282 87 65 50 55 38 53 55 62 70 71 78 44 36 52 335 170 179 202 214 222 200 178 162 133 149 340
113 106 98 91 81 68 76 32 357 343 9 71 71 71 61 49 302 160 72 96 105 71 41 45 61 23 8 51 74 173 198 191 179 173 187 217 280 298
107 105 103 104 93 90 36 40 20 31 42 39 50 41 64 45 39 356 357 240 185 130 67 67 95 38 29 55 18 65 70 126 126 130 236 277 258 235
146 202 189 214 207 154 104 42 42 25 44 25 21 20 29 21 96 6 340 333 335 160 174 129 42 90 74 87 21 32 353 150 145 124 339 318 338 141
255 279 210 336 16 40 48 159 166 100 51 21 21 12 12 16 339 23 338 334 349 57 52 113 295 207 209 239 274 348 360 49 164 167 155 284 300 186
287 302 63 70 34 25 356 11 64 43 36 342 344 2 351 320 328 306 313 300 300 277 158 37 327 356 346 167 182 136 19 307 304 330 221 214 243 236
258 298 96 89 24 12 351 1 29 0 241 270 327 305 315 326 319 321 321 43 342 340 295 205 171 99 349 354 315 223 150 124 288 302 307 320 298 257
236 170 198 268 246 280 330 329 318 306 325 327 298 304 298 318 324 301 310 296 280 275 287 143 126 2 300 259 268 234 206 188 179 204 299 276 276 292
335 327 294 203 223 242 251 254 283 284 261 254 269 270 282 283 288 310 319 312 238 249 272 197 215 232 239 254 272 245 196 208 218 235 240 247 226 246
310 331 324 322 314 234 236 234 249 274 292 290 257 271 285 264 278 294 299 286 280 274 280 271 252 225 222 257 264 285 254 213 224 231 236 217 196 191